sat.trackr.live / text

‹ back to catalog

ONEWEB-0031

NORAD 45431 · 2020-020H

PAYLOAD ACTIVE UNKNOWN

§ Identity

Operator
Country
UK
Launch date
2020-03-21
Launch site
TYMSC
Launch vehicle
Mass (kg)
RCS (m²)

Purposes: comms

External: N2YO · Heavens-Above · Gunter

§ Orbital elements

Epoch: 2026-09-20T02:24:49.991904Z

Period
109.80 min
Inclination
87.8964°
Eccentricity
0.0001629
Mean motion
13.11419189 rev/d
Perigee alt
1,216.4 km
Apogee alt
1,218.9 km
Semi-major
7,595.8 km
B*
7.7336e-4
RAAN
2.2026°
Arg perigee
98.2918°
Mean anomaly
261.8394°
Rev number
31,509

§ Raw data

ONEWEB-00311 45431U 20020H   26263.10057861  .00000287  00000+0  77336-3 0  99932 45431  87.8964   2.2026 0001629  98.2918 261.8394 13.11419189315097

JSON: /api/v1/satellites/45431 · /tle

For live sub-satellite position, see the globe view (requires WebGL).

§ Visibility from observer

Set your observer location to see the next 7 days of passes ≥ 10°. The values pass through the URL so the page stays shareable.

No JS? Fill the form by hand. The geolocation button needs JavaScript.